Location: Sankt+Gallen
(47.4262°N, 9.3755°E)
Time: 05:14:38
(UTC+01:00)

ARIANE 6 FM1 Upper Stage - Pass Details

Date: 18 February 2026
Orbit: 523 x 607 km, 62.0° (Epoch: 11 March)

Event Time Altitude Azimuth Distance (km) Brightness Sun altitude
Rises 18:37:43 0° 318° (NW) 2,661 6.6 -8.6°
Reaches altitude 10° 18:39:56 10° 321° (NW) 1,768 5.7 -9.0°
Maximum altitude 18:43:53 67° 45° (NE) 572 2.5 -9.7°
Drops below altitude 10° 18:47:50 10° 129° (SE) 1,772 4.8 -10.3°
Enters shadow 18:48:44 - 130° (SE) 2,135 5.2 -10.5°
